M I D A S
Marine Information and Data Acquisition System
Tripno 718 of the Zeeleeuw from 2004-05-17 06:24:55 to 2004-05-17 15:07:46
Back to CruiseResearch ActivitiesStationsMapUnderway DataData graphs

EquipmentUnitsComments
TimeDGPSUTC
LatitudeDGPSDM.mWGS84
LongitudeDGPSDM.mWGS84
SpeedMeteo Stationm/sRelative wind speed
DirectionMeteo StationdegRelative wind direction
TemperatureMeteo Stationdeg CelciusAir temperature
PressureMeteo StationPaAtmospheric pressure
HumidityMeteo Station%Relative humidity
Missing or incorrect values are displayed as -999
Metereological data collected by the RV Zeeleeuw from 2004-05-17 06:24:55 to 2004-05-17 15:07:46
                                                                                    Next 1000 lines
Time Latitude Longitude Speed Direction Temperature Pressure Humidity
2004-05-17 06:25:03 51°13.597 2°56.097 2.3 12 13.9 102680 77
2004-05-17 06:25:08 51°13.597 2°56.097 2.6 19 13.9 102680 77
2004-05-17 06:25:13 51°13.597 2°56.097 3.2 11 13.9 102680 77
2004-05-17 06:25:17 51°13.597 2°56.097 3.2 15 13.9 102680 77
2004-05-17 06:25:23 51°13.597 2°56.097 3.3 12 13.9 102680 77
2004-05-17 06:25:28 51°13.597 2°56.096 3.3 15 13.9 102680 77
2004-05-17 06:25:33 51°13.597 2°56.096 3.4 18 13.9 102680 77
2004-05-17 06:25:38 51°13.597 2°56.095 3.9 11 13.9 102680 77
2004-05-17 06:25:43 51°13.597 2°56.094 3.8 26 13.9 102680 77
2004-05-17 06:25:48 51°13.598 2°56.092 4.2 21 13.9 102680 77
2004-05-17 06:25:52 51°13.598 2°56.091 3.5 24 13.9 102680 77
2004-05-17 06:25:58 51°13.599 2°56.09 3.5 20 13.9 102680 77
2004-05-17 06:26:04 51°13.599 2°56.088 3.1 16 13.9 102680 77
2004-05-17 06:26:08 51°13.6 2°56.087 3.9 16 13.9 102680 77
2004-05-17 06:26:13 51°13.601 2°56.085 3.1 10 13.9 102680 77
2004-05-17 06:26:18 51°13.601 2°56.084 3.5 6 13.9 102680 77
2004-05-17 06:26:23 51°13.602 2°56.082 3.4 30 13.9 102680 77
2004-05-17 06:26:28 51°13.603 2°56.08 3.3 28 13.9 102680 77
2004-05-17 06:26:33 51°13.603 2°56.078 3.4 19 13.9 102680 77
2004-05-17 06:26:37 51°13.604 2°56.077 3.5 27 14 102680 77
2004-05-17 06:26:43 51°13.605 2°56.074 3 15 14 102680 77
2004-05-17 06:26:48 51°13.606 2°56.071 3.3 11 13.9 102680 77
2004-05-17 06:26:53 51°13.607 2°56.068 2.5 34 13.9 102680 77
2004-05-17 06:26:58 51°13.608 2°56.065 2.4 36 14 102680 77
2004-05-17 06:27:04 51°13.61 2°56.06 2.9 39 14 102680 77
2004-05-17 06:27:09 51°13.611 2°56.056 3 30 14 102680 77
2004-05-17 06:27:13 51°13.612 2°56.053 2.3 25 14 102680 77
2004-05-17 06:27:19 51°13.614 2°56.047 2.1 25 14 102680 77
2004-05-17 06:27:24 51°13.615 2°56.043 2.3 32 14 102680 77
2004-05-17 06:27:29 51°13.617 2°56.038 2.2 35 14 102680 77
2004-05-17 06:27:33 51°13.618 2°56.034 2.1 30 14 102680 77
2004-05-17 06:27:39 51°13.62 2°56.028 2 33 14 102680 77
2004-05-17 06:27:44 51°13.622 2°56.022 1.9 4 14 102680 77
2004-05-17 06:27:49 51°13.624 2°56.017 2 10 14 102680 76
2004-05-17 06:27:54 51°13.626 2°56.011 2 1 14 102680 76
2004-05-17 06:27:59 51°13.627 2°56.006 2.2 20 14 102680 76
2004-05-17 06:28:04 51°13.629 2°56 1.9 23 14 102680 76
2004-05-17 06:28:09 51°13.631 2°55.994 1.5 19 14 102680 76
2004-05-17 06:28:13 51°13.633 2°55.99 1.7 44 14 102680 76
2004-05-17 06:28:19 51°13.635 2°55.983 1.8 57 14 102690 76
2004-05-17 06:28:24 51°13.637 2°55.977 1.8 59 14 102690 76
2004-05-17 06:28:29 51°13.639 2°55.971 1.6 67 14.1 102680 76
2004-05-17 06:28:33 51°13.64 2°55.967 1.4 68 14.1 102680 76
2004-05-17 06:28:39 51°13.643 2°55.96 1.6 66 14.1 102680 76
2004-05-17 06:28:44 51°13.644 2°55.954 1.9 71 14.1 102680 76
2004-05-17 06:28:49 51°13.646 2°55.948 1.7 79 14.1 102680 76
2004-05-17 06:28:53 51°13.648 2°55.943 1.9 79 14.1 102680 76
2004-05-17 06:28:59 51°13.651 2°55.935 1.8 76 14.1 102680 76
2004-05-17 06:29:04 51°13.653 2°55.927 1.4 83 14.1 102680 76
2004-05-17 06:29:09 51°13.655 2°55.919 1.8 82 14.1 102680 76
2004-05-17 06:29:14 51°13.658 2°55.911 1.9 100 14.1 102680 76
2004-05-17 06:29:19 51°13.66 2°55.902 1.8 98 14.1 102680 76
2004-05-17 06:29:24 51°13.663 2°55.893 1.7 91 14.1 102680 76
2004-05-17 06:29:29 51°13.665 2°55.884 1.7 91 14.1 102680 76
2004-05-17 06:29:34 51°13.668 2°55.874 2 73 14.1 102680 76
2004-05-17 06:29:39 51°13.67 2°55.863 1.7 94 14.1 102680 76
2004-05-17 06:29:44 51°13.672 2°55.852 1.5 91 14.1 102680 76
2004-05-17 06:29:49 51°13.674 2°55.841 1.3 94 14.1 102680 76
2004-05-17 06:29:53 51°13.675 2°55.832 1.4 110 14.1 102680 76
2004-05-17 06:29:59 51°13.677 2°55.819 1.3 118 14.1 102690 75
2004-05-17 06:30:04 51°13.678 2°55.807 2.2 150 14.1 102690 75
2004-05-17 06:30:09 51°13.679 2°55.796 1.8 149 14.1 102690 75
2004-05-17 06:30:13 51°13.679 2°55.787 1.3 153 14.1 102690 75
2004-05-17 06:30:19 51°13.68 2°55.775 1.3 148 14.1 102680 75
2004-05-17 06:30:24 51°13.68 2°55.767 2.6 135 14.1 102680 75
2004-05-17 06:30:28 51°13.681 2°55.762 2.8 124 14.1 102690 75
2004-05-17 06:30:33 51°13.681 2°55.757 2.7 90 14.1 102690 75
2004-05-17 06:30:37 51°13.681 2°55.755 3.3 97 14.2 102690 75
2004-05-17 06:30:44 51°13.682 2°55.754 1.9 102 14.2 102690 75
2004-05-17 06:30:48 51°13.682 2°55.754 2.5 126 14.2 102680 76
2004-05-17 06:30:53 51°13.683 2°55.755 2.8 86 14.2 102680 76
2004-05-17 06:30:58 51°13.685 2°55.757 2.5 81 14.2 102680 75
2004-05-17 06:31:03 51°13.687 2°55.759 2.2 76 14.2 102680 75
2004-05-17 06:31:08 51°13.689 2°55.761 2.4 76 14.2 102680 75
2004-05-17 06:31:13 51°13.693 2°55.764 2.8 83 14.2 102680 75
2004-05-17 06:31:18 51°13.696 2°55.766 2.8 97 14.2 102680 75
2004-05-17 06:31:23 51°13.701 2°55.768 2.8 101 14.2 102680 75
2004-05-17 06:31:28 51°13.704 2°55.769 2.7 103 14.2 102680 76
2004-05-17 06:31:33 51°13.708 2°55.769 2.5 124 14.2 102680 76
2004-05-17 06:31:37 51°13.711 2°55.77 2.8 126 14.2 102680 76
2004-05-17 06:31:43 51°13.714 2°55.77 3 132 14.2 102680 76
2004-05-17 06:31:48 51°13.715 2°55.77 3.3 136 14.2 102680 76
2004-05-17 06:31:53 51°13.717 2°55.77 3.3 143 14.2 102680 76
2004-05-17 06:31:58 51°13.717 2°55.77 3.3 146 14.3 102680 76
2004-05-17 06:32:03 51°13.718 2°55.771 3.4 151 14.3 102680 76
2004-05-17 06:32:08 51°13.717 2°55.771 3.3 155 14.3 102680 76
2004-05-17 06:32:11 51°13.717 2°55.771 3.3 148 14.3 102680 76
2004-05-17 06:32:18 51°13.716 2°55.772 3.7 151 14.3 102680 75
2004-05-17 06:32:23 51°13.716 2°55.772 3 149 14.3 102680 75
2004-05-17 06:32:28 51°13.716 2°55.773 3.1 141 14.3 102680 75
2004-05-17 06:32:33 51°13.716 2°55.773 2.7 156 14.3 102680 75
2004-05-17 06:32:37 51°13.717 2°55.773 2.9 154 14.3 102690 75
2004-05-17 06:32:43 51°13.718 2°55.773 2.5 163 14.3 102690 75
2004-05-17 06:32:48 51°13.719 2°55.772 2.7 167 14.3 102690 75
2004-05-17 06:32:53 51°13.72 2°55.771 1.8 173 14.3 102690 75
2004-05-17 06:32:57 51°13.721 2°55.771 1.9 180 14.3 102690 75
2004-05-17 06:33:03 51°13.723 2°55.769 1.2 166 14.3 102690 75
2004-05-17 06:33:08 51°13.725 2°55.768 1.2 172 14.3 102680 75
2004-05-17 06:33:13 51°13.727 2°55.766 1.1 194 14.3 102680 75
2004-05-17 06:33:19 51°13.729 2°55.763 1.6 200 14.3 102680 75
2004-05-17 06:33:23 51°13.731 2°55.761 1 208 14.3 102680 75
2004-05-17 06:33:28 51°13.733 2°55.758 1.1 179 14.3 102690 75
2004-05-17 06:33:33 51°13.735 2°55.755 1 196 14.3 102690 75
2004-05-17 06:33:37 51°13.737 2°55.752 0.9 186 14.3 102680 75
2004-05-17 06:33:43 51°13.74 2°55.748 1 221 14.3 102680 75
2004-05-17 06:33:48 51°13.742 2°55.744 1.4 220 14.4 102680 76
2004-05-17 06:33:53 51°13.745 2°55.74 0.9 181 14.4 102680 76
2004-05-17 06:33:58 51°13.748 2°55.736 0.9 193 14.4 102690 76
2004-05-17 06:34:04 51°13.751 2°55.731 1.2 173 14.4 102690 76
2004-05-17 06:34:08 51°13.754 2°55.727 1 174 14.4 102680 76
2004-05-17 06:34:13 51°13.757 2°55.723 1 205 14.4 102680 76
2004-05-17 06:34:18 51°13.76 2°55.718 0.8 209 14.4 102680 75
2004-05-17 06:34:23 51°13.763 2°55.713 0.7 187 14.4 102680 75
2004-05-17 06:34:28 51°13.767 2°55.708 0.6 188 14.4 102690 75
2004-05-17 06:34:33 51°13.771 2°55.703 0.7 166 14.4 102690 75
2004-05-17 06:34:38 51°13.774 2°55.698 0.9 166 14.4 102690 75
2004-05-17 06:34:43 51°13.778 2°55.693 0.7 166 14.4 102690 75
2004-05-17 06:34:48 51°13.782 2°55.688 0.6 166 14.4 102690 75
2004-05-17 06:34:53 51°13.786 2°55.683 0.8 158 14.4 102690 75
2004-05-17 06:34:57 51°13.79 2°55.679 0.7 156 14.5 102680 75
2004-05-17 06:35:04 51°13.796 2°55.672 0.8 156 14.5 102680 75
2004-05-17 06:35:08 51°13.8 2°55.668 0.9 156 14.5 102690 75
2004-05-17 06:35:13 51°13.804 2°55.664 0.8 156 14.5 102690 75
2004-05-17 06:35:18 51°13.809 2°55.66 0.9 154 14.5 102680 75
2004-05-17 06:35:23 51°13.814 2°55.656 1 153 14.5 102680 75
2004-05-17 06:35:28 51°13.818 2°55.652 1 154 14.5 102680 75
2004-05-17 06:35:33 51°13.823 2°55.649 1 153 14.5 102680 75
2004-05-17 06:35:37 51°13.827 2°55.646 1 152 14.5 102680 75
2004-05-17 06:35:43 51°13.832 2°55.642 1.2 156 14.5 102680 75
2004-05-17 06:35:48 51°13.837 2°55.639 1.5 159 14.5 102690 75
2004-05-17 06:35:54 51°13.843 2°55.637 1.1 118 14.5 102690 75
2004-05-17 06:35:57 51°13.845 2°55.635 1.4 120 14.5 102690 75
2004-05-17 06:36:03 51°13.851 2°55.634 1.1 73 14.5 102690 75
2004-05-17 06:36:08 51°13.855 2°55.633 1.1 72 14.5 102680 75
2004-05-17 06:36:13 51°13.86 2°55.632 1.4 97 14.5 102680 75
2004-05-17 06:36:17 51°13.864 2°55.632 1.3 73 14.5 102690 75
2004-05-17 06:36:23 51°13.87 2°55.632 1.4 84 14.5 102690 75
2004-05-17 06:36:28 51°13.875 2°55.634 1.6 110 14.5 102680 75
2004-05-17 06:36:33 51°13.881 2°55.635 1.5 94 14.5 102680 75
2004-05-17 06:36:37 51°13.885 2°55.636 1.7 98 14.6 102680 75
2004-05-17 06:36:43 51°13.891 2°55.637 1.5 137 14.6 102680 75
2004-05-17 06:36:48 51°13.896 2°55.637 1.6 97 14.6 102680 75
2004-05-17 06:36:53 51°13.901 2°55.637 0.5 83 14.6 102680 75
2004-05-17 06:36:58 51°13.906 2°55.637 0.6 101 14.6 102680 75
2004-05-17 06:37:04 51°13.911 2°55.636 1 77 14.6 102680 75
2004-05-17 06:37:08 51°13.914 2°55.636 1.3 139 14.6 102680 75
2004-05-17 06:37:13 51°13.917 2°55.635 0.8 152 14.6 102680 75
2004-05-17 06:37:17 51°13.92 2°55.635 0.7 152 14.6 102690 75
2004-05-17 06:37:22 51°13.923 2°55.634 0.5 147 14.6 102690 75
2004-05-17 06:37:28 51°13.927 2°55.633 0.4 142 14.6 102690 75
2004-05-17 06:37:33 51°13.93 2°55.632 1.6 182 14.6 102690 75
2004-05-17 06:37:37 51°13.933 2°55.632 2 176 14.6 102680 74
2004-05-17 06:37:43 51°13.937 2°55.631 2.4 182 14.6 102680 74
2004-05-17 06:37:48 51°13.94 2°55.63 2.1 182 14.6 102680 74
2004-05-17 06:37:53 51°13.942 2°55.629 1.7 199 14.6 102680 74
2004-05-17 06:37:57 51°13.944 2°55.628 2.1 169 14.6 102680 74
2004-05-17 06:38:03 51°13.947 2°55.627 2 176 14.6 102680 74
2004-05-17 06:38:08 51°13.948 2°55.626 1.9 182 14.6 102690 74
2004-05-17 06:38:13 51°13.95 2°55.626 1.8 187 14.6 102690 74
2004-05-17 06:38:19 51°13.952 2°55.625 2.4 165 14.7 102680 74
2004-05-17 06:38:23 51°13.953 2°55.625 2.4 162 14.7 102680 74
2004-05-17 06:38:28 51°13.953 2°55.624 2.2 162 14.6 102690 74
2004-05-17 06:38:33 51°13.954 2°55.624 2.7 162 14.6 102690 74
2004-05-17 06:38:37 51°13.954 2°55.624 2.7 167 14.7 102680 74
2004-05-17 06:38:43 51°13.955 2°55.623 2.6 157 14.7 102680 74
2004-05-17 06:38:48 51°13.955 2°55.623 2.4 178 14.7 102680 74
2004-05-17 06:38:53 51°13.955 2°55.623 2.6 165 14.7 102680 74
2004-05-17 06:38:57 51°13.955 2°55.623 2.4 175 14.7 102680 74
2004-05-17 06:39:03 51°13.955 2°55.623 2.6 163 14.7 102680 74
2004-05-17 06:39:08 51°13.955 2°55.623 3.1 167 14.7 102680 74
2004-05-17 06:39:13 51°13.955 2°55.623 2.3 177 14.7 102680 74
2004-05-17 06:39:17 51°13.956 2°55.623 2.2 176 14.7 102680 74
2004-05-17 06:39:23 51°13.956 2°55.623 2.9 167 14.7 102680 74
2004-05-17 06:39:28 51°13.956 2°55.623 3.1 156 14.7 102690 74
2004-05-17 06:39:32 51°13.956 2°55.623 2.4 174 14.7 102690 74
2004-05-17 06:39:37 51°13.956 2°55.623 2.3 155 14.7 102690 74
2004-05-17 06:39:42 51°13.956 2°55.623 2 144 14.7 102690 74
2004-05-17 06:39:48 51°13.957 2°55.623 2.3 148 14.7 102690 74
2004-05-17 06:39:53 51°13.957 2°55.622 2 154 14.7 102690 74
2004-05-17 06:39:57 51°13.957 2°55.622 1.8 154 14.7 102690 74
2004-05-17 06:40:03 51°13.957 2°55.622 1.4 178 14.7 102690 74
2004-05-17 06:40:08 51°13.958 2°55.622 1.1 179 14.7 102690 74
2004-05-17 06:40:13 51°13.958 2°55.622 2.4 185 14.7 102690 74
2004-05-17 06:40:18 51°13.958 2°55.623 2.4 186 14.7 102680 74
2004-05-17 06:40:23 51°13.958 2°55.623 2 179 14.7 102680 74
2004-05-17 06:40:28 51°13.957 2°55.623 3.3 175 14.7 102680 74
2004-05-17 06:40:33 51°13.957 2°55.623 3.3 178 14.7 102680 74
2004-05-17 06:40:39 51°13.956 2°55.624 3.1 179 14.7 102680 74
2004-05-17 06:40:43 51°13.956 2°55.624 3.5 174 14.7 102680 74
2004-05-17 06:40:48 51°13.956 2°55.624 2.7 176 14.7 102690 74
2004-05-17 06:40:52 51°13.956 2°55.624 1.8 176 14.7 102690 74
2004-05-17 06:40:57 51°13.955 2°55.624 2.3 169 14.7 102680 73
2004-05-17 06:41:04 51°13.955 2°55.625 2.2 165 14.7 102680 73
2004-05-17 06:41:08 51°13.954 2°55.625 3.1 163 14.8 102690 73
2004-05-17 06:41:13 51°13.954 2°55.625 2.8 160 14.8 102690 73
2004-05-17 06:41:19 51°13.953 2°55.625 3.1 163 14.8 102680 73
2004-05-17 06:41:23 51°13.953 2°55.626 2 168 14.8 102680 73
2004-05-17 06:41:28 51°13.953 2°55.626 2.6 160 14.8 102690 73
2004-05-17 06:41:33 51°13.952 2°55.626 2.9 152 14.8 102690 73
2004-05-17 06:41:37 51°13.952 2°55.626 3.1 160 14.8 102680 73
2004-05-17 06:41:43 51°13.951 2°55.626 3.1 161 14.8 102680 73
2004-05-17 06:41:48 51°13.95 2°55.626 2.7 159 14.8 102690 73
2004-05-17 06:41:53 51°13.95 2°55.626 2.9 162 14.8 102690 73
2004-05-17 06:41:57 51°13.95 2°55.626 2.4 147 14.8 102680 73
2004-05-17 06:42:04 51°13.95 2°55.626 3 148 14.8 102680 73
2004-05-17 06:42:08 51°13.95 2°55.626 3.1 150 14.8 102680 73
2004-05-17 06:42:13 51°13.95 2°55.626 2.5 141 14.8 102680 73
2004-05-17 06:42:17 51°13.95 2°55.626 2.4 144 14.8 102680 73
2004-05-17 06:42:24 51°13.95 2°55.626 2.4 140 14.8 102680 73
2004-05-17 06:42:28 51°13.951 2°55.626 2.2 142 14.8 102690 73
2004-05-17 06:42:33 51°13.951 2°55.625 1.2 177 14.8 102690 73
2004-05-17 06:42:38 51°13.952 2°55.625 1.9 175 14.8 102680 73
2004-05-17 06:42:43 51°13.952 2°55.625 2.2 173 14.8 102680 73
2004-05-17 06:42:48 51°13.953 2°55.625 2.2 163 14.8 102680 73
2004-05-17 06:42:53 51°13.953 2°55.625 2.6 164 14.8 102680 73
2004-05-17 06:42:57 51°13.954 2°55.624 2.8 160 14.8 102680 73
2004-05-17 06:43:03 51°13.954 2°55.624 2.6 149 14.8 102680 73
2004-05-17 06:43:08 51°13.955 2°55.624 2.5 147 14.8 102690 73
2004-05-17 06:43:12 51°13.955 2°55.623 2.8 148 14.8 102690 73
2004-05-17 06:43:18 51°13.956 2°55.623 3.1 151 14.8 102690 73
2004-05-17 06:43:23 51°13.956 2°55.623 3.2 148 14.8 102690 73
2004-05-17 06:43:28 51°13.957 2°55.622 3.2 152 14.8 102690 73
2004-05-17 06:43:33 51°13.957 2°55.622 3.3 161 14.8 102690 73
2004-05-17 06:43:37 51°13.958 2°55.622 3 152 14.8 102690 73
2004-05-17 06:43:43 51°13.959 2°55.621 2.6 153 14.8 102690 73
2004-05-17 06:43:48 51°13.959 2°55.621 2.7 165 14.8 102690 73
2004-05-17 06:43:53 51°13.96 2°55.621 2.8 171 14.8 102690 73
2004-05-17 06:43:57 51°13.961 2°55.62 2.7 167 14.8 102680 73
2004-05-17 06:44:03 51°13.961 2°55.62 3.3 159 14.8 102680 73
2004-05-17 06:44:08 51°13.962 2°55.619 3.2 166 14.8 102690 73
2004-05-17 06:44:13 51°13.962 2°55.619 3.3 161 14.8 102690 73
2004-05-17 06:44:17 51°13.963 2°55.618 3.1 158 14.8 102690 73
2004-05-17 06:44:23 51°13.964 2°55.618 2.8 169 14.8 102690 73
2004-05-17 06:44:28 51°13.964 2°55.617 3.3 167 14.8 102690 73
2004-05-17 06:44:33 51°13.965 2°55.617 3.5 160 14.8 102690 73
2004-05-17 06:44:39 51°13.966 2°55.616 3.7 168 14.8 102690 73
2004-05-17 06:44:44 51°13.967 2°55.616 3.1 173 14.8 102690 73
2004-05-17 06:44:48 51°13.967 2°55.616 2.6 179 14.8 102690 73
2004-05-17 06:44:53 51°13.968 2°55.615 3.3 164 14.8 102690 73
2004-05-17 06:44:57 51°13.968 2°55.615 2.2 148 14.8 102680 72
2004-05-17 06:45:03 51°13.969 2°55.614 3.5 147 14.8 102680 72
2004-05-17 06:45:08 51°13.97 2°55.613 4 150 14.8 102690 72
2004-05-17 06:45:13 51°13.971 2°55.613 3.3 153 14.8 102690 72
2004-05-17 06:45:18 51°13.971 2°55.612 3 148 14.8 102690 73
2004-05-17 06:45:23 51°13.972 2°55.611 3.8 152 14.8 102690 73
2004-05-17 06:45:28 51°13.972 2°55.611 3.7 152 14.8 102680 73
2004-05-17 06:45:33 51°13.972 2°55.611 3.9 156 14.8 102680 73
2004-05-17 06:45:39 51°13.972 2°55.611 3.8 165 14.8 102680 73
2004-05-17 06:45:43 51°13.971 2°55.612 3.8 165 14.8 102680 73
2004-05-17 06:45:48 51°13.971 2°55.612 4.3 169 14.7 102680 72
2004-05-17 06:45:53 51°13.971 2°55.612 4.2 164 14.7 102680 72
2004-05-17 06:45:58 51°13.971 2°55.612 4.4 165 14.7 102680 72
2004-05-17 06:46:03 51°13.97 2°55.612 3.9 173 14.7 102680 72
2004-05-17 06:46:08 51°13.97 2°55.612 3 171 14.8 102690 72
2004-05-17 06:46:13 51°13.97 2°55.612 3.6 149 14.8 102690 72
2004-05-17 06:46:18 51°13.97 2°55.612 3.7 151 14.7 102680 72
2004-05-17 06:46:24 51°13.97 2°55.612 4 156 14.7 102680 72
2004-05-17 06:46:28 51°13.969 2°55.612 3.7 162 14.7 102690 73
2004-05-17 06:46:33 51°13.969 2°55.611 4 163 14.7 102690 73
2004-05-17 06:46:38 51°13.969 2°55.611 3.5 170 14.7 102680 73
2004-05-17 06:46:43 51°13.969 2°55.611 3.4 164 14.7 102680 73
2004-05-17 06:46:48 51°13.969 2°55.611 3.2 165 14.7 102680 73
2004-05-17 06:46:53 51°13.97 2°55.611 2.7 161 14.7 102680 73
2004-05-17 06:46:57 51°13.97 2°55.611 3.2 153 14.7 102690 73
2004-05-17 06:47:03 51°13.97 2°55.611 3.4 157 14.7 102690 73
2004-05-17 06:47:08 51°13.97 2°55.61 3.6 153 14.7 102690 73
2004-05-17 06:47:13 51°13.97 2°55.61 2.8 161 14.7 102690 73
2004-05-17 06:47:17 51°13.97 2°55.61 3 159 14.7 102690 73
2004-05-17 06:47:23 51°13.971 2°55.61 3.5 163 14.7 102690 73
2004-05-17 06:47:28 51°13.971 2°55.609 3.5 156 14.7 102690 73
2004-05-17 06:47:33 51°13.971 2°55.609 3.6 156 14.7 102690 73
2004-05-17 06:47:38 51°13.971 2°55.608 3.7 154 14.7 102690 73
2004-05-17 06:47:43 51°13.971 2°55.608 3.6 154 14.7 102690 73
2004-05-17 06:47:48 51°13.972 2°55.608 3.5 158 14.7 102680 73
2004-05-17 06:47:53 51°13.972 2°55.608 3.9 162 14.7 102680 73
2004-05-17 06:47:57 51°13.972 2°55.607 3.5 165 14.7 102680 73
2004-05-17 06:48:03 51°13.973 2°55.607 2.9 161 14.7 102680 73
2004-05-17 06:48:08 51°13.973 2°55.606 3.2 165 14.6 102680 73
2004-05-17 06:48:13 51°13.974 2°55.606 2.7 173 14.6 102680 73
2004-05-17 06:48:18 51°13.974 2°55.605 2.3 172 14.6 102680 73
2004-05-17 06:48:21 51°13.975 2°55.604 2.5 161 14.6 102680 73
2004-05-17 06:48:28 51°13.977 2°55.602 2.3 163 14.6 102680 73
2004-05-17 06:48:33 51°13.979 2°55.6 3.1 158 14.6 102680 73
2004-05-17 06:48:39 51°13.982 2°55.597 3 160 14.6 102690 73
2004-05-17 06:48:43 51°13.984 2°55.595 2.7 166 14.6 102690 73
2004-05-17 06:48:48 51°13.987 2°55.591 2.4 168 14.6 102680 73
2004-05-17 06:48:53 51°13.99 2°55.587 1.8 169 14.6 102680 73
2004-05-17 06:48:58 51°13.993 2°55.583 2.3 162 14.6 102690 73
2004-05-17 06:49:03 51°13.997 2°55.578 1.8 175 14.6 102690 73
2004-05-17 06:49:08 51°14.002 2°55.572 1.6 176 14.6 102690 73
2004-05-17 06:49:13 51°14.007 2°55.566 1.3 175 14.6 102690 73
2004-05-17 06:49:17 51°14.011 2°55.561 1.3 173 14.6 102690 73
2004-05-17 06:49:23 51°14.018 2°55.552 1 185 14.6 102690 73
2004-05-17 06:49:28 51°14.024 2°55.545 1.1 183 14.6 102690 73
2004-05-17 06:49:33 51°14.03 2°55.537 1.3 163 14.6 102690 73
2004-05-17 06:49:37 51°14.035 2°55.53 1.4 161 14.6 102690 73
2004-05-17 06:49:43 51°14.043 2°55.52 0.8 169 14.6 102690 73
2004-05-17 06:49:48 51°14.051 2°55.511 0.6 169 14.6 102690 73
2004-05-17 06:49:53 51°14.059 2°55.502 0.2 169 14.6 102690 73
2004-05-17 06:49:58 51°14.068 2°55.492 0.1 169 14.6 102690 73
2004-05-17 06:50:03 51°14.077 2°55.481 0.1 169 14.6 102690 73
2004-05-17 06:50:08 51°14.087 2°55.471   163 14.6 102690 73
2004-05-17 06:50:13 51°14.097 2°55.459 0.6 130 14.6 102690 73
2004-05-17 06:50:17 51°14.105 2°55.45 0.6 118 14.6 102690 73
2004-05-17 06:50:24 51°14.119 2°55.434 0.9 50 14.6 102690 73
2004-05-17 06:50:28 51°14.128 2°55.425 0.9 42 14.6 102690 73
2004-05-17 06:50:33 51°14.139 2°55.413 1.1 31 14.6 102690 73
2004-05-17 06:50:37 51°14.148 2°55.405 1.1 31 14.7 102680 74
2004-05-17 06:50:43 51°14.162 2°55.391 1.1 29 14.7 102680 74
2004-05-17 06:50:48 51°14.173 2°55.379 1.1 28 14.6 102690 74
2004-05-17 06:50:53 51°14.184 2°55.366 1.4 4 14.6 102690 74
2004-05-17 06:50:59 51°14.197 2°55.351 1.4 2 14.7 102690 73
2004-05-17 06:51:04 51°14.208 2°55.337 1.5 356 14.7 102690 73
2004-05-17 06:51:08 51°14.216 2°55.326 1.5 356 14.7 102690 73
2004-05-17 06:51:13 51°14.226 2°55.311 1.5 352 14.7 102690 73
2004-05-17 06:51:17 51°14.235 2°55.299 1.6 349 14.7 102690 73
2004-05-17 06:51:23 51°14.247 2°55.281 1.6 347 14.7 102690 73
2004-05-17 06:51:28 51°14.257 2°55.266 1.5 347 14.7 102680 73
2004-05-17 06:51:33 51°14.267 2°55.251 1.4 347 14.7 102680 73
2004-05-17 06:51:37 51°14.275 2°55.239 1.4 347 14.7 102690 73
2004-05-17 06:51:43 51°14.288 2°55.221 1.1 347 14.7 102690 73
2004-05-17 06:51:48 51°14.298 2°55.206 1.1 347 14.7 102690 73
2004-05-17 06:51:53 51°14.308 2°55.19 1.3 347 14.7 102690 73
2004-05-17 06:51:58 51°14.318 2°55.175 1.2 347 14.7 102690 73
2004-05-17 06:52:03 51°14.327 2°55.158 1.1 337 14.7 102690 73
2004-05-17 06:52:08 51°14.336 2°55.141 1.1 337 14.7 102690 73
2004-05-17 06:52:13 51°14.346 2°55.124 1 337 14.7 102690 73
2004-05-17 06:52:18 51°14.354 2°55.107 0.9 337 14.7 102690 74
2004-05-17 06:52:23 51°14.363 2°55.09 1.1 337 14.7 102690 74
2004-05-17 06:52:28 51°14.372 2°55.072 1.1 319 14.8 102680 73
2004-05-17 06:52:33 51°14.38 2°55.054 1.2 316 14.8 102680 73
2004-05-17 06:52:37 51°14.387 2°55.039 1.1 316 14.8 102690 73
2004-05-17 06:52:43 51°14.397 2°55.017 1.1 316 14.8 102690 73
2004-05-17 06:52:48 51°14.406 2°54.998 1.4 330 14.8 102690 73
2004-05-17 06:52:53 51°14.413 2°54.979 1.4 325 14.8 102690 73
2004-05-17 06:52:58 51°14.421 2°54.96 1.4 324 14.8 102680 73
2004-05-17 06:53:03 51°14.429 2°54.941 0.9 312 14.8 102680 73
2004-05-17 06:53:08 51°14.439 2°54.924 0.7 329 14.9 102680 73
2004-05-17 06:53:13 51°14.449 2°54.908 0.9 350 14.9 102680 73
2004-05-17 06:53:18 51°14.459 2°54.893 0.9 4 14.9 102680 73
2004-05-17 06:53:23 51°14.47 2°54.878 0.8 26 14.9 102680 73
2004-05-17 06:53:28 51°14.482 2°54.865 0.9 37 14.9 102680 73
2004-05-17 06:53:33 51°14.493 2°54.852 1.1 47 14.9 102680 73
2004-05-17 06:53:38 51°14.505 2°54.841 1.3 53 14.9 102690 73
2004-05-17 06:53:43 51°14.517 2°54.829 1.1 50 14.9 102690 73
2004-05-17 06:53:47 51°14.527 2°54.82 1.4 50 14.9 102680 73
2004-05-17 06:53:53 51°14.541 2°54.806 1.5 40 14.9 102680 73
2004-05-17 06:53:57 51°14.551 2°54.796 1.3 40 14.9 102680 73
2004-05-17 06:54:03 51°14.565 2°54.781 1 41 14.9 102680 73
2004-05-17 06:54:08 51°14.577 2°54.769 1 46 14.9 102680 72
2004-05-17 06:54:13 51°14.589 2°54.758 1.2 51 14.9 102680 72
2004-05-17 06:54:17 51°14.599 2°54.75 1.4 54 14.9 102680 72
2004-05-17 06:54:23 51°14.615 2°54.74 1.8 58 14.9 102680 72
2004-05-17 06:54:27 51°14.625 2°54.733 2 58 14.9 102680 72
2004-05-17 06:54:33 51°14.641 2°54.725 1.9 61 14.9 102680 72
2004-05-17 06:54:37 51°14.651 2°54.719 2 61 14.9 102680 72
2004-05-17 06:54:43 51°14.667 2°54.711 2.2 64 14.9 102680 72
2004-05-17 06:54:47 51°14.677 2°54.706 2.2 63 14.9 102680 72
2004-05-17 06:54:53 51°14.693 2°54.698 2.1 60 14.9 102680 72
2004-05-17 06:54:57 51°14.704 2°54.693 2.1 58 14.9 102680 73
2004-05-17 06:55:03 51°14.72 2°54.685 2.3 60 14.9 102680 73
2004-05-17 06:55:07 51°14.73 2°54.679 2.5 53 14.9 102680 73
2004-05-17 06:55:13 51°14.746 2°54.671 2.6 53 14.9 102680 73
2004-05-17 06:55:17 51°14.756 2°54.665 2.4 52 14.9 102680 73
2004-05-17 06:55:23 51°14.772 2°54.656 1.9 67 14.9 102680 73
2004-05-17 06:55:28 51°14.784 2°54.648 1.9 66 14.9 102680 73
2004-05-17 06:55:33 51°14.797 2°54.639 2.2 41 14.9 102680 73
2004-05-17 06:55:38 51°14.81 2°54.63 2.1 42 14.9 102680 73
2004-05-17 06:55:43 51°14.822 2°54.62 2.2 42 14.9 102680 73
2004-05-17 06:55:47 51°14.832 2°54.612 2 43 14.9 102680 73
2004-05-17 06:55:53 51°14.847 2°54.599 2 59 14.9 102680 73
2004-05-17 06:55:58 51°14.859 2°54.589 1.8 56 14.9 102680 74
2004-05-17 06:56:03 51°14.872 2°54.578 2.1 60 14.9 102680 74
2004-05-17 06:56:07 51°14.882 2°54.57 2 60 14.9 102680 74
2004-05-17 06:56:13 51°14.897 2°54.558 1.9 61 14.9 102680 74
2004-05-17 06:56:18 51°14.909 2°54.548 2 59 14.9 102680 74
2004-05-17 06:56:23 51°14.921 2°54.537 1.7 57 14.9 102680 74
2004-05-17 06:56:28 51°14.934 2°54.527 1.6 58 14.8 102680 74
2004-05-17 06:56:33 51°14.946 2°54.518 1.9 59 14.8 102680 74
2004-05-17 06:56:37 51°14.956 2°54.51 1.9 61 14.8 102680 74
2004-05-17 06:56:43 51°14.971 2°54.5 2.4 55 14.8 102680 74
2004-05-17 06:56:48 51°14.984 2°54.493 2.7 59 14.8 102680 73
2004-05-17 06:56:53 51°14.997 2°54.486 3 60 14.8 102680 73
2004-05-17 06:56:57 51°15.007 2°54.482 2.8 57 14.8 102680 73
2004-05-17 06:57:03 51°15.023 2°54.473 2.5 59 14.8 102680 73
2004-05-17 06:57:08 51°15.035 2°54.466 2.4 56 14.8 102680 73
2004-05-17 06:57:13 51°15.048 2°54.457 2.3 52 14.8 102680 73
2004-05-17 06:57:18 51°15.06 2°54.448 2.1 43 14.8 102680 74
2004-05-17 06:57:23 51°15.072 2°54.438 1.9 70 14.8 102680 74
2004-05-17 06:57:28 51°15.084 2°54.428 1.8 72 14.8 102680 74
2004-05-17 06:57:33 51°15.096 2°54.418 1.9 71 14.8 102680 74
2004-05-17 06:57:37 51°15.106 2°54.41 2 71 14.8 102680 74
2004-05-17 06:57:43 51°15.121 2°54.398 2 67 14.8 102680 74
2004-05-17 06:57:47 51°15.131 2°54.391 2.3 67 14.8 102680 74
2004-05-17 06:57:52 51°15.143 2°54.383 3 62 14.8 102680 74
2004-05-17 06:57:57 51°15.156 2°54.377 3.1 59 14.8 102680 74
2004-05-17 06:58:03 51°15.171 2°54.37 3.5 58 14.8 102680 74
2004-05-17 06:58:08 51°15.184 2°54.365 3.2 61 14.7 102680 74
2004-05-17 06:58:13 51°15.197 2°54.36 3.3 56 14.7 102680 74
2004-05-17 06:58:17 51°15.207 2°54.356 3.9 57 14.7 102680 74
2004-05-17 06:58:23 51°15.223 2°54.349 3.6 58 14.7 102680 74
2004-05-17 06:58:28 51°15.235 2°54.342 3.6 57 14.7 102680 75
2004-05-17 06:58:33 51°15.248 2°54.335 3.4 58 14.7 102680 75
2004-05-17 06:58:38 51°15.261 2°54.327 3.4 61 14.7 102680 75
2004-05-17 06:58:43 51°15.273 2°54.319 3.4 57 14.7 102680 75
2004-05-17 06:58:48 51°15.286 2°54.311 3.3 54 14.7 102670 75
2004-05-17 06:58:53 51°15.298 2°54.303 3.2 57 14.7 102670 75
2004-05-17 06:58:58 51°15.311 2°54.294 3.3 57 14.7 102680 75
2004-05-17 06:59:03 51°15.323 2°54.285 3.3 57 14.7 102680 75
2004-05-17 06:59:08 51°15.336 2°54.276 3.2 58 14.6 102680 75
2004-05-17 06:59:13 51°15.348 2°54.268 3.2 60 14.6 102680 75
2004-05-17 06:59:18 51°15.361 2°54.26 3.2 59 14.6 102670 75
2004-05-17 06:59:23 51°15.373 2°54.252 3.5 56 14.6 102670 75
2004-05-17 06:59:28 51°15.386 2°54.245 3.1 57 14.6 102680 75
2004-05-17 06:59:33 51°15.399 2°54.236 3.2 54 14.6 102680 75
2004-05-17 06:59:37 51°15.409 2°54.23 2.9 53 14.6 102680 75
2004-05-17 06:59:43 51°15.424 2°54.219 2.8 49 14.6 102680 75
2004-05-17 06:59:47 51°15.433 2°54.211 2.9 46 14.6 102680 75
2004-05-17 06:59:53 51°15.448 2°54.199 2.7 48 14.6 102680 75
2004-05-17 06:59:58 51°15.46 2°54.188 2.5 42 14.6 102680 75
2004-05-17 07:00:03 51°15.472 2°54.177 2.9 40 14.6 102680 75
2004-05-17 07:00:08 51°15.484 2°54.166 3.1 34 14.6 102680 76
2004-05-17 07:00:13 51°15.496 2°54.155 3 39 14.6 102680 76
2004-05-17 07:00:18 51°15.508 2°54.145 3.6 38 14.6 102680 76
2004-05-17 07:00:23 51°15.521 2°54.134 3.5 41 14.6 102680 76
2004-05-17 07:00:27 51°15.53 2°54.126 3.5 37 14.5 102680 76
2004-05-17 07:00:33 51°15.545 2°54.114 3.3 36 14.5 102680 76
2004-05-17 07:00:38 51°15.557 2°54.103 3.7 31 14.5 102680 76
2004-05-17 07:00:43 51°15.569 2°54.093 3.8 31 14.5 102680 76
2004-05-17 07:00:48 51°15.582 2°54.083 4.2 31 14.5 102680 77
2004-05-17 07:00:53 51°15.594 2°54.075 4.4 27 14.5 102680 77
2004-05-17 07:00:58 51°15.607 2°54.068 4.4 27 14.5 102680 77
2004-05-17 07:01:03 51°15.62 2°54.062 4.4 30 14.5 102680 77
2004-05-17 07:01:08 51°15.633 2°54.056 4.3 33 14.5 102680 77
2004-05-17 07:01:13 51°15.646 2°54.051 4.6 36 14.5 102680 77
2004-05-17 07:01:18 51°15.659 2°54.046 4.5 32 14.5 102680 77
2004-05-17 07:01:23 51°15.672 2°54.042 4.6 34 14.5 102680 77
2004-05-17 07:01:27 51°15.682 2°54.039 4.7 28 14.5 102680 77
2004-05-17 07:01:33 51°15.698 2°54.035 4.7 30 14.5 102680 77
2004-05-17 07:01:37 51°15.708 2°54.032 4.7 33 14.5 102680 77
2004-05-17 07:01:43 51°15.724 2°54.029 4.6 33 14.5 102680 77
2004-05-17 07:01:48 51°15.737 2°54.027 4.7 32 14.5 102680 77
2004-05-17 07:01:53 51°15.75 2°54.025 4.5 33 14.5 102680 77
2004-05-17 07:01:57 51°15.761 2°54.023 4.8 33 14.5 102680 78
2004-05-17 07:02:03 51°15.777 2°54.022 4.6 32 14.5 102680 78
2004-05-17 07:02:07 51°15.787 2°54.021 4.8 35 14.4 102680 78
2004-05-17 07:02:13 51°15.803 2°54.02 4.8 32 14.4 102680 78
2004-05-17 07:02:17 51°15.813 2°54.02 4.8 35 14.4 102680 78
2004-05-17 07:02:23 51°15.829 2°54.02 5.1 35 14.4 102680 78
2004-05-17 07:02:27 51°15.839 2°54.02 4.9 33 14.4 102680 78
2004-05-17 07:02:33 51°15.855 2°54.021 5 35 14.4 102680 78
2004-05-17 07:02:38 51°15.868 2°54.022 5.1 33 14.4 102680 78
2004-05-17 07:02:41 51°15.876 2°54.022 4.9 31 14.4 102680 78
2004-05-17 07:02:47 51°15.891 2°54.024 5.1 32 14.4 102680 78
2004-05-17 07:02:51 51°15.901 2°54.026 5.3 25 14.4 102680 78
2004-05-17 07:02:55 51°15.911 2°54.029 5.5 28 14.4 102680 78
2004-05-17 07:03:03 51°15.931 2°54.035 5 32 14.4 102680 78
2004-05-17 07:03:07 51°15.941 2°54.039 5.2 27 14.4 102680 78
2004-05-17 07:03:13 51°15.955 2°54.045 4.6 31 14.4 102680 78
2004-05-17 07:03:17 51°15.963 2°54.05 4.3 38 14.4 102680 78
2004-05-17 07:03:23 51°15.975 2°54.057 4.8 39 14.4 102680 78
2004-05-17 07:03:27 51°15.982 2°54.062 4.5 37 14.4 102680 78
2004-05-17 07:03:33 51°15.992 2°54.069 3.7 35 14.4 102680 78
2004-05-17 07:03:38 51°16 2°54.075 4.3 44 14.4 102680 78
2004-05-17 07:03:41 51°16.004 2°54.079 4.3 37 14.4 102680 78
2004-05-17 07:03:48 51°16.015 2°54.087 4.1 42 14.4 102680 78
2004-05-17 07:03:53 51°16.022 2°54.093 3.3 36 14.4 102680 78
2004-05-17 07:03:57 51°16.027 2°54.096 3.3 42 14.4 102680 78
2004-05-17 07:04:03 51°16.035 2°54.102 3.4 36 14.4 102680 78
2004-05-17 07:04:07 51°16.041 2°54.105 3.1 40 14.3 102680 78
2004-05-17 07:04:13 51°16.049 2°54.109 3.3 42 14.3 102680 78
2004-05-17 07:04:16 51°16.053 2°54.111 3.1 47 14.4 102680 78
2004-05-17 07:04:23 51°16.062 2°54.114 3 42 14.4 102680 78
2004-05-17 07:04:27 51°16.067 2°54.116 2.9 42 14.3 102690 78
2004-05-17 07:04:32 51°16.073 2°54.119 2.6 42 14.3 102690 78
2004-05-17 07:04:36 51°16.078 2°54.121 2.8 44 14.3 102680 78
2004-05-17 07:04:43 51°16.087 2°54.125 2.8 43 14.3 102680 78
2004-05-17 07:04:48 51°16.092 2°54.128 2.8 41 14.3 102690 78
2004-05-17 07:04:53 51°16.098 2°54.131 3 42 14.3 102690 78
2004-05-17 07:04:57 51°16.102 2°54.134 2.9 45 14.3 102680 78
2004-05-17 07:05:03 51°16.108 2°54.139 2.8 45 14.3 102680 78
2004-05-17 07:05:07 51°16.112 2°54.142 3 43 14.3 102690 78
2004-05-17 07:05:12 51°16.117 2°54.146 3 46 14.3 102690 78
2004-05-17 07:05:17 51°16.122 2°54.15 3.1 47 14.3 102690 79
2004-05-17 07:05:23 51°16.127 2°54.156 3.3 47 14.3 102690 79
2004-05-17 07:05:28 51°16.132 2°54.161 3 40 14.3 102680 79
2004-05-17 07:05:33 51°16.137 2°54.167 3.4 40 14.3 102680 79
2004-05-17 07:05:38 51°16.142 2°54.173 3.6 39 14.3 102680 79
2004-05-17 07:05:43 51°16.147 2°54.18 3.9 44 14.3 102680 79
2004-05-17 07:05:47 51°16.152 2°54.186 4.2 38 14.3 102690 79
2004-05-17 07:05:52 51°16.157 2°54.195 4.3 37 14.3 102690 79
2004-05-17 07:05:57 51°16.163 2°54.204 4.4 42 14.3 102690 79
2004-05-17 07:06:03 51°16.17 2°54.215 4.7 39 14.3 102690 79
2004-05-17 07:06:07 51°16.175 2°54.222 4.6 39 14.3 102680 79
2004-05-17 07:06:12 51°16.181 2°54.231 4.3 41 14.3 102680 79
2004-05-17 07:06:17 51°16.188 2°54.238 4.6 46 14.3 102680 79
2004-05-17 07:06:23 51°16.197 2°54.247 4.1 43 14.3 102680 79
2004-05-17 07:06:27 51°16.204 2°54.252 4.1 47 14.3 102680 79
2004-05-17 07:06:33 51°16.214 2°54.259 3.8 48 14.3 102680 79
2004-05-17 07:06:37 51°16.22 2°54.263 4 55 14.3 102680 79
2004-05-17 07:06:43 51°16.229 2°54.269 3.8 54 14.3 102680 79
2004-05-17 07:06:47 51°16.235 2°54.273 3.7 60 14.3 102680 79
2004-05-17 07:06:52 51°16.241 2°54.277 3.7 59 14.3 102680 79
2004-05-17 07:06:57 51°16.248 2°54.281 3.4 58 14.3 102680 79
2004-05-17 07:07:03 51°16.255 2°54.286 3.6 62 14.3 102680 79
2004-05-17 07:07:07 51°16.26 2°54.29 3.5 61 14.3 102680 79
2004-05-17 07:07:12 51°16.265 2°54.293 3 71 14.3 102680 79
2004-05-17 07:07:17 51°16.269 2°54.296 2.7 73 14.3 102680 79
2004-05-17 07:07:23 51°16.274 2°54.3 2.7 76 14.3 102680 79
2004-05-17 07:07:27 51°16.276 2°54.301 2.7 79 14.3 102680 78
2004-05-17 07:07:32 51°16.278 2°54.303 3.3 84 14.3 102680 78
2004-05-17 07:07:37 51°16.279 2°54.304 2.9 93 14.3 102690 78
2004-05-17 07:07:43 51°16.28 2°54.304 2.7 105 14.3 102690 78
2004-05-17 07:07:47 51°16.281 2°54.303 2.8 104 14.3 102690 78
2004-05-17 07:07:53 51°16.281 2°54.303 2.7 107 14.3 102690 78
2004-05-17 07:07:55 51°16.281 2°54.303 2.7 108 14.3 102690 78
2004-05-17 07:08:03 51°16.282 2°54.302 2.6 110 14.3 102690 78
2004-05-17 07:08:08 51°16.283 2°54.301 2.9 108 14.3 102680 78
2004-05-17 07:08:12 51°16.283 2°54.3 2.8 115 14.3 102680 78
2004-05-17 07:08:15 51°16.283 2°54.299 2.6 117 14.3 102690 78
2004-05-17 07:08:23 51°16.282 2°54.297 2.7 117 14.3 102690 78
2004-05-17 07:08:27 51°16.282 2°54.296 2.7 118 14.3 102690 78
2004-05-17 07:08:32 51°16.282 2°54.295 2.8 118 14.3 102690 78
2004-05-17 07:08:36 51°16.282 2°54.293 2.8 116 14.4 102680 78
2004-05-17 07:08:43 51°16.282 2°54.292 2.8 118 14.4 102680 78
2004-05-17 07:08:48 51°16.282 2°54.29 2.7 117 14.4 102680 78
2004-05-17 07:08:53 51°16.282 2°54.289 2.8 116 14.4 102680 78
2004-05-17 07:08:58 51°16.282 2°54.287 2.9 117 14.4 102680 78
2004-05-17 07:09:03 51°16.282 2°54.286 2.8 117 14.4 102680 78
2004-05-17 07:09:07 51°16.282 2°54.285 2.8 117 14.4 102680 78
2004-05-17 07:09:12 51°16.281 2°54.283 2.7 117 14.4 102680 78
2004-05-17 07:09:17 51°16.281 2°54.282 2.8 117 14.4 102690 78
2004-05-17 07:09:23 51°16.281 2°54.28 2.6 117 14.4 102690 78
2004-05-17 07:09:27 51°16.281 2°54.279 2.7 118 14.5 102680 78
2004-05-17 07:09:33 51°16.281 2°54.277 2.7 117 14.5 102680 78
2004-05-17 07:09:35 51°16.281 2°54.276 2.8 117 14.5 102680 77
2004-05-17 07:09:43 51°16.281 2°54.274 2.8 118 14.5 102680 77
2004-05-17 07:09:48 51°16.281 2°54.272 2.8 118 14.5 102680 77
2004-05-17 07:09:53 51°16.281 2°54.271 2.4 116 14.5 102680 77
2004-05-17 07:09:57 51°16.281 2°54.27 2.6 116 14.5 102680 77
2004-05-17 07:10:03 51°16.28 2°54.268 2.6 119 14.5 102680 77
2004-05-17 07:10:08 51°16.28 2°54.266 2.7 119 14.5 102680 77
2004-05-17 07:10:13 51°16.28 2°54.265 2.6 117 14.5 102680 77
2004-05-17 07:10:17 51°16.28 2°54.263 2.5 115 14.5 102680 77
2004-05-17 07:10:23 51°16.279 2°54.261 2.6 117 14.5 102680 77
2004-05-17 07:10:28 51°16.279 2°54.26 2.5 116 14.5 102680 77
2004-05-17 07:10:33 51°16.279 2°54.258 2.3 116 14.5 102680 77
2004-05-17 07:10:37 51°16.279 2°54.257 2.4 116 14.5 102680 77
2004-05-17 07:10:43 51°16.278 2°54.255 2.5 117 14.5 102680 77
2004-05-17 07:10:47 51°16.278 2°54.254 2.5 117 14.6 102680 77
2004-05-17 07:10:51 51°16.278 2°54.253 2.5 116 14.6 102680 77
2004-05-17 07:10:57 51°16.278 2°54.251 2.6 117 14.6 102680 77
2004-05-17 07:11:03 51°16.277 2°54.249 2.5 116 14.6 102680 77
2004-05-17 07:11:07 51°16.277 2°54.247 2.5 117 14.6 102680 77
2004-05-17 07:11:11 51°16.277 2°54.246 2.6 116 14.6 102680 77
2004-05-17 07:11:17 51°16.277 2°54.244 2.6 117 14.6 102680 77
2004-05-17 07:11:23 51°16.276 2°54.242 2.4 117 14.6 102680 77
2004-05-17 07:11:28 51°16.276 2°54.24 2.5 117 14.6 102680 76
2004-05-17 07:11:32 51°16.276 2°54.239 2.6 117 14.6 102680 76
2004-05-17 07:11:37 51°16.275 2°54.237 2.4 117 14.6 102680 76
2004-05-17 07:11:43 51°16.275 2°54.235 2.3 117 14.6 102680 76
2004-05-17 07:11:47 51°16.275 2°54.234 2.3 117 14.7 102680 76
2004-05-17 07:11:52 51°16.274 2°54.232 2.3 117 14.7 102680 76
2004-05-17 07:11:57 51°16.274 2°54.231 2.3 117 14.7 102680 76
2004-05-17 07:12:03 51°16.273 2°54.229 2.3 116 14.7 102680 76
2004-05-17 07:12:07 51°16.273 2°54.227 2.4 115 14.7 102680 76
2004-05-17 07:12:12 51°16.272 2°54.226 2.3 116 14.7 102680 76
2004-05-17 07:12:17 51°16.272 2°54.224 2.3 117 14.7 102680 76
2004-05-17 07:12:23 51°16.272 2°54.222 2.3 117 14.7 102680 76
2004-05-17 07:12:27 51°16.271 2°54.221 2.2 115 14.7 102680 76
2004-05-17 07:12:33 51°16.271 2°54.218 2.3 117 14.7 102680 76
2004-05-17 07:12:37 51°16.27 2°54.217 2.2 116 14.7 102680 76
2004-05-17 07:12:43 51°16.27 2°54.215 2.3 116 14.7 102680 76
2004-05-17 07:12:47 51°16.269 2°54.214 2.2 116 14.7 102680 76
2004-05-17 07:12:53 51°16.269 2°54.212 2.3 116 14.7 102680 76
2004-05-17 07:12:57 51°16.269 2°54.21 2.3 116 14.7 102680 76
2004-05-17 07:13:03 51°16.268 2°54.208 2.3 116 14.7 102680 76
2004-05-17 07:13:08 51°16.268 2°54.206 2.2 116 14.7 102680 76
2004-05-17 07:13:13 51°16.267 2°54.204 2.3 115 14.7 102680 76
2004-05-17 07:13:18 51°16.266 2°54.203 2.3 115 14.8 102680 76
2004-05-17 07:13:23 51°16.266 2°54.201 2.4 115 14.8 102680 76
2004-05-17 07:13:28 51°16.266 2°54.199 2.4 116 14.8 102680 76
2004-05-17 07:13:33 51°16.265 2°54.198 2.1 109 14.8 102680 76
2004-05-17 07:13:37 51°16.266 2°54.198 2.2 101 14.8 102680 76
2004-05-17 07:13:43 51°16.268 2°54.199 2.3 91 14.8 102680 76
2004-05-17 07:13:47 51°16.271 2°54.2 2.2 80 14.8 102680 76
2004-05-17 07:13:52 51°16.277 2°54.203 2.8 63 14.8 102680 76
2004-05-17 07:13:57 51°16.284 2°54.204 3 57 14.8 102680 76
2004-05-17 07:14:03 51°16.296 2°54.204 2.9 48 14.8 102680 76
2004-05-17 07:14:08 51°16.306 2°54.202 3 44 14.8 102680 76
2004-05-17 07:14:13 51°16.318 2°54.197 2.8 32 14.8 102680 76
2004-05-17 07:14:17 51°16.328 2°54.191 2.8 26 14.8 102680 76
2004-05-17 07:14:23 51°16.343 2°54.177 2.8 17 14.8 102680 76
2004-05-17 07:14:27 51°16.353 2°54.165 3 9 14.8 102680 76
2004-05-17 07:14:33 51°16.367 2°54.143 3.6 359 14.8 102680 76
2004-05-17 07:14:37 51°16.375 2°54.127 3.6   14.8 102680 75
2004-05-17 07:14:44 51°16.39 2°54.096 3.8 356 14.8 102680 75
2004-05-17 07:14:48 51°16.399 2°54.077 4.1 357 14.8 102680 75
2004-05-17 07:14:53 51°16.41 2°54.054 3.9 356 14.8 102680 75
2004-05-17 07:14:57 51°16.418 2°54.035 4.2 358 14.8 102680 75
2004-05-17 07:15:03 51°16.431 2°54.006 4 357 14.8 102680 75
2004-05-17 07:15:07 51°16.439 2°53.985 4 357 14.7 102680 75
2004-05-17 07:15:13 51°16.451 2°53.954 4.1 357 14.7 102680 75
2004-05-17 07:15:17 51°16.459 2°53.933 4.1 355 14.7 102680 75
2004-05-17 07:15:24 51°16.473 2°53.896 4.5 356 14.7 102680 75
2004-05-17 07:15:28 51°16.481 2°53.875 4.1 355 14.8 102680 75
2004-05-17 07:15:33 51°16.491 2°53.849 4.4 354 14.8 102680 75
2004-05-17 07:15:37 51°16.498 2°53.827 4.4 355 14.8 102680 75
2004-05-17 07:15:43 51°16.51 2°53.795 4.5 353 14.8 102680 75
2004-05-17 07:15:48 51°16.52 2°53.769 4.3 354 14.7 102680 75
2004-05-17 07:15:53 51°16.53 2°53.742 4.4 353 14.7 102680 75
2004-05-17 07:15:57 51°16.537 2°53.721 4.4 354 14.8 102680 75
2004-05-17 07:16:04 51°16.552 2°53.684 4.3 352 14.8 102680 75
2004-05-17 07:16:08 51°16.56 2°53.663 4.5 354 14.8 102680 75
2004-05-17 07:16:13 51°16.57 2°53.637 4.6 355 14.8 102680 75
2004-05-17 07:16:16 51°16.576 2°53.621 4.7 352 14.8 102680 75
2004-05-17 07:16:23 51°16.591 2°53.586 4.2 356 14.8 102680 75
2004-05-17 07:16:28 51°16.601 2°53.56 4.3 357 14.8 102680 75
2004-05-17 07:16:33 51°16.612 2°53.535 4.4 359 14.8 102680 75
2004-05-17 07:16:37 51°16.621 2°53.515 4.5 357 14.8 102680 75
2004-05-17 07:16:44 51°16.636 2°53.48 4.4 355 14.8 102680 75
2004-05-17 07:16:48 51°16.645 2°53.461 4.2 358 14.8 102680 75
2004-05-17 07:16:52 51°16.654 2°53.441 4.5 358 14.8 102680 75
2004-05-17 07:16:57 51°16.665 2°53.416 4.5 357 14.8 102680 75
2004-05-17 07:17:03 51°16.678 2°53.387 4.3 358 14.8 102680 75
2004-05-17 07:17:08 51°16.689 2°53.362 4.2 357 14.8 102680 75
2004-05-17 07:17:12 51°16.698 2°53.342 4.3 360 14.8 102680 75
2004-05-17 07:17:17 51°16.71 2°53.319 4.4 358 14.8 102680 75
2004-05-17 07:17:22 51°16.722 2°53.295 4.5   14.8 102680 75
2004-05-17 07:17:28 51°16.736 2°53.268 4.5 359 14.8 102680 75
2004-05-17 07:17:33 51°16.749 2°53.245 4.6 359 14.8 102680 75
2004-05-17 07:17:37 51°16.758 2°53.227 4.8 359 14.8 102680 75
2004-05-17 07:17:43 51°16.773 2°53.2 4.8 2 14.8 102680 75
2004-05-17 07:17:48 51°16.785 2°53.177 5 2 14.8 102680 75
2004-05-17 07:17:53 51°16.797 2°53.154 5.2 6 14.8 102680 75
2004-05-17 07:17:57 51°16.807 2°53.136 5.8 2 14.8 102690 75
2004-05-17 07:18:04 51°16.824 2°53.105 6.1 3 14.8 102690 75
2004-05-17 07:18:08 51°16.834 2°53.087 6 1 14.8 102680 75
2004-05-17 07:18:13 51°16.846 2°53.065 6.2 359 14.8 102680 75
2004-05-17 07:18:18 51°16.858 2°53.044 6.7 357 14.8 102680 76
2004-05-17 07:18:24 51°16.872 2°53.02 6.6 1 14.8 102680 76
2004-05-17 07:18:27 51°16.88 2°53.008 6.3 4 14.8 102680 76
2004-05-17 07:18:33 51°16.894 2°52.984 5.7 7 14.8 102680 76
2004-05-17 07:18:37 51°16.904 2°52.968 6.3 2 14.8 102680 76
2004-05-17 07:18:43 51°16.918 2°52.945 6.6 4 14.8 102680 76
2004-05-17 07:18:47 51°16.928 2°52.929 6.7 3 14.8 102680 76
2004-05-17 07:18:52 51°16.941 2°52.909 6.6 7 14.8 102680 76
2004-05-17 07:18:56 51°16.951 2°52.892 6.4 6 14.7 102680 76
2004-05-17 07:19:03 51°16.968 2°52.864 6.6 2 14.7 102680 76
2004-05-17 07:19:07 51°16.978 2°52.847 7.1 2 14.7 102680 76
2004-05-17 07:19:13 51°16.993 2°52.82 6.9 5 14.7 102680 76
2004-05-17 07:19:17 51°17.002 2°52.802 6.8 5 14.7 102680 76
2004-05-17 07:19:23 51°17.017 2°52.775 6.5 2 14.7 102680 76
2004-05-17 07:19:28 51°17.028 2°52.752 6.2 5 14.6 102680 77
2004-05-17 07:19:32 51°17.038 2°52.733 6 2 14.6 102680 77
2004-05-17 07:19:37 51°17.05 2°52.71 5.9 360 14.6 102680 77
2004-05-17 07:19:42 51°17.062 2°52.687 5.8 4 14.6 102680 77
2004-05-17 07:19:47 51°17.074 2°52.665 5.8 5 14.6 102680 77
2004-05-17 07:19:53 51°17.089 2°52.638 5.3 8 14.6 102680 77
2004-05-17 07:19:57 51°17.099 2°52.621 5.4 1 14.5 102680 77
2004-05-17 07:20:03 51°17.115 2°52.596 4.6 6 14.5 102680 77
2004-05-17 07:20:07 51°17.125 2°52.581 5 2 14.5 102680 77
2004-05-17 07:20:12 51°17.138 2°52.561 4.9 7 14.5 102680 77
2004-05-17 07:20:17 51°17.151 2°52.541 4.6 11 14.5 102680 77
2004-05-17 07:20:23 51°17.167 2°52.516 5.3 7 14.5 102680 77
2004-05-17 07:20:27 51°17.177 2°52.5 5 5 14.5 102680 77
2004-05-17 07:20:33 51°17.193 2°52.475 4.9 11 14.5 102680 77
2004-05-17 07:20:37 51°17.203 2°52.457 4.5 6 14.5 102680 77
2004-05-17 07:20:43 51°17.219 2°52.432 4.9 11 14.5 102680 77
2004-05-17 07:20:47 51°17.229 2°52.415 4.5 10 14.5 102690 77
2004-05-17 07:20:53 51°17.245 2°52.391 4.6 9 14.5 102690 77
2004-05-17 07:20:57 51°17.256 2°52.375 4.4 8 14.5 102680 77
2004-05-17 07:21:03 51°17.272 2°52.351 4.5 7 14.5 102680 77
2004-05-17 07:21:08 51°17.286 2°52.332 4.6 9 14.5 102680 77
2004-05-17 07:21:13 51°17.301 2°52.313 4.4 15 14.5 102680 77
2004-05-17 07:21:17 51°17.312 2°52.298 3.8 15 14.5 102680 77
2004-05-17 07:21:23 51°17.329 2°52.275 4.1 10 14.5 102680 77
2004-05-17 07:21:28 51°17.343 2°52.256 4.3 13 14.4 102680 77
2004-05-17 07:21:33 51°17.356 2°52.236 4.6 15 14.4 102680 77
2004-05-17 07:21:37 51°17.367 2°52.22 4.4 12 14.4 102680 77
2004-05-17 07:21:43 51°17.384 2°52.197 4.4 13 14.4 102680 77
2004-05-17 07:21:47 51°17.395 2°52.181 4.3 9 14.4 102680 77
2004-05-17 07:21:51 51°17.406 2°52.165 4.7 12 14.4 102680 77
2004-05-17 07:21:57 51°17.422 2°52.142 4.7 10 14.5 102680 77
2004-05-17 07:22:03 51°17.439 2°52.119 4.9 11 14.5 102680 77
2004-05-17 07:22:08 51°17.453 2°52.099 4.9 13 14.5 102680 77
2004-05-17 07:22:13 51°17.467 2°52.08 4.7 11 14.5 102680 77
2004-05-17 07:22:17 51°17.478 2°52.064 4.6 9 14.5 102680 77
2004-05-17 07:22:23 51°17.494 2°52.04 4.7 12 14.5 102680 77
2004-05-17 07:22:27 51°17.505 2°52.024 4.7 11 14.5 102680 77
2004-05-17 07:22:33 51°17.522 2°52 5 10 14.5 102680 77
2004-05-17 07:22:37 51°17.532 2°51.984 5 10 14.5 102680 77
2004-05-17 07:22:43 51°17.549 2°51.961 5 10 14.5 102680 77
2004-05-17 07:22:47 51°17.56 2°51.945 5.1 11 14.5 102680 77
2004-05-17 07:22:51 51°17.571 2°51.93 5.4 10 14.5 102680 77
2004-05-17 07:22:57 51°17.588 2°51.906 5.4 11 14.5 102680 77
2004-05-17 07:23:03 51°17.604 2°51.884 5.6 11 14.5 102680 77
2004-05-17 07:23:07 51°17.615 2°51.868 5.5 12 14.5 102680 77
2004-05-17 07:23:12 51°17.629 2°51.849 5.8 11 14.5 102680 77
2004-05-17 07:23:17 51°17.643 2°51.829 5.8 13 14.5 102680 77
2004-05-17 07:23:23 51°17.66 2°51.806 6.2 12 14.5 102680 77
2004-05-17 07:23:27 51°17.671 2°51.791 6.3 10 14.5 102680 78
2004-05-17 07:23:31 51°17.682 2°51.775 7.2 11 14.5 102680 78
2004-05-17 07:23:37 51°17.698 2°51.751 7.2 13 14.5 102680 78
2004-05-17 07:23:43 51°17.714 2°51.727 7.4 10 14.5 102680 78
2004-05-17 07:23:47 51°17.726 2°51.712 7.5 11 14.5 102680 78
2004-05-17 07:23:53 51°17.742 2°51.689 7.4 10 14.5 102680 78
2004-05-17 07:23:58 51°17.756 2°51.669 7.4 10 14.5 102680 78
2004-05-17 07:24:03 51°17.769 2°51.649 7.6 12 14.5 102680 78
2004-05-17 07:24:07 51°17.78 2°51.633 7.3 11 14.5 102680 78
2004-05-17 07:24:11 51°17.791 2°51.618 7.5 11 14.5 102680 78
2004-05-17 07:24:17 51°17.807 2°51.594 7.3 12 14.5 102680 78
2004-05-17 07:24:23 51°17.823 2°51.57 7.3 11 14.5 102680 78
2004-05-17 07:24:27 51°17.835 2°51.554 7.7 10 14.4 102680 78
2004-05-17 07:24:31 51°17.846 2°51.538 7.6 7 14.4 102680 78
2004-05-17 07:24:37 51°17.862 2°51.514 7.4 8 14.4 102680 78
2004-05-17 07:24:43 51°17.879 2°51.491 7.3 7 14.4 102680 78
2004-05-17 07:24:47 51°17.89 2°51.476 7.5 8 14.3 102680 78
2004-05-17 07:24:53 51°17.907 2°51.453 7.3 6 14.3 102680 78
2004-05-17 07:24:56 51°17.916 2°51.441 7.1 7 14.3 102680 79
2004-05-17 07:25:03 51°17.936 2°51.414 6.8 7 14.3 102680 79
2004-05-17 07:25:07 51°17.947 2°51.399 6.6 6 14.3 102680 79
2004-05-17 07:25:13 51°17.964 2°51.375 6.5 6 14.3 102680 79
2004-05-17 07:25:16 51°17.972 2°51.362 6.5 6 14.3 102680 79
2004-05-17 07:25:23 51°17.991 2°51.334 6.5 7 14.3 102680 79
2004-05-17 07:25:28 51°18.005 2°51.314 6.4 7 14.3 102680 79
2004-05-17 07:25:33 51°18.019 2°51.294 6 6 14.3 102680 79
2004-05-17 07:25:37 51°18.03 2°51.277 6.2 5 14.2 102680 79
2004-05-17 07:25:43 51°18.047 2°51.253 6.2 5 14.2 102680 79
2004-05-17 07:25:48 51°18.061 2°51.233 6.1 4 14.2 102680 79
2004-05-17 07:25:53 51°18.075 2°51.213 6.3 5 14.2 102680 79
2004-05-17 07:25:57 51°18.086 2°51.197 6.3 3 14.2 102680 79
2004-05-17 07:26:03 51°18.102 2°51.172 6.3 4 14.2 102680 79
2004-05-17 07:26:07 51°18.114 2°51.156 6.3 3 14.2 102670 79
2004-05-17 07:26:13 51°18.13 2°51.132 5.9 2 14.2 102670 79
2004-05-17 07:26:17 51°18.14 2°51.116 5.7 1 14.2 102680 79
2004-05-17 07:26:23 51°18.156 2°51.094 5.3 359 14.2 102680 79
2004-05-17 07:26:27 51°18.165 2°51.08 4.6 360 14.2 102680 79
2004-05-17 07:26:33 51°18.179 2°51.06 4.7 359 14.2 102680 79
2004-05-17 07:26:37 51°18.187 2°51.048 4.3 359 14.2 102680 79
2004-05-17 07:26:43 51°18.199 2°51.03 4.1 359 14.2 102680 79
2004-05-17 07:26:48 51°18.209 2°51.016 4 360 14.2 102680 79
2004-05-17 07:26:53 51°18.218 2°51.003 3.8 3 14.2 102680 79
2004-05-17 07:26:57 51°18.225 2°50.994 3.7 2 14.2 102680 79
2004-05-17 07:27:03 51°18.236 2°50.98 3.3 3 14.2 102680 79
2004-05-17 07:27:07 51°18.243 2°50.972 3.1 3 14.2 102680 79
2004-05-17 07:27:12 51°18.251 2°50.963 3.2 7 14.2 102680 79
2004-05-17 07:27:16 51°18.258 2°50.955 3.1 8 14.2 102670 79
2004-05-17 07:27:23 51°18.27 2°50.945 2.8 8 14.2 102670 79
2004-05-17 07:27:28 51°18.278 2°50.938 2.8 7 14.2 102680 79
2004-05-17 07:27:33 51°18.286 2°50.933 2.7 7 14.2 102680 79
2004-05-17 07:27:37 51°18.293 2°50.929 2.6 9 14.2 102680 79
2004-05-17 07:27:43 51°18.302 2°50.925 2.6 16 14.2 102680 79
2004-05-17 07:27:47 51°18.308 2°50.922 2.7 17 14.2 102680 79
2004-05-17 07:27:53 51°18.317 2°50.92 2.6 14 14.2 102680 79
2004-05-17 07:27:57 51°18.323 2°50.92 2.7 12 14.2 102680 79
2004-05-17 07:28:03 51°18.332 2°50.92 2.5 16 14.2 102680 79
2004-05-17 07:28:08 51°18.338 2°50.921 2.6 20 14.2 102680 79
2004-05-17 07:28:11 51°18.342 2°50.922 2.5 17 14.2 102680 79
2004-05-17 07:28:16 51°18.348 2°50.925 2.4 17 14.2 102680 79
2004-05-17 07:28:23 51°18.357 2°50.93 2.5 22 14.2 102680 79
2004-05-17 07:28:27 51°18.361 2°50.933 2.2 24 14.2 102670 79
2004-05-17 07:28:33 51°18.368 2°50.938 2.4 23 14.2 102670 79
2004-05-17 07:28:37 51°18.372 2°50.942 2.7 17 14.2 102670 79
2004-05-17 07:28:43 51°18.378 2°50.947 3 20 14.2 102670 79
2004-05-17 07:28:48 51°18.384 2°50.952 2.9 19 14.3 102680 79
2004-05-17 07:28:53 51°18.389 2°50.956 2.9 19 14.3 102680 79
2004-05-17 07:28:57 51°18.393 2°50.96 2.7 21 14.2 102680 79
2004-05-17 07:29:03 51°18.4 2°50.964 2.9 20 14.2 102680 79
2004-05-17 07:29:08 51°18.406 2°50.968 2.7 20 14.2 102680 79
2004-05-17 07:29:13 51°18.411 2°50.972 2.9 19 14.2 102680 79
2004-05-17 07:29:17 51°18.416 2°50.974 2.9 19 14.3 102680 79
2004-05-17 07:29:23 51°18.423 2°50.978 3.1 18 14.3 102680 79
2004-05-17 07:29:27 51°18.428 2°50.981 3.1 17 14.3 102680 80
2004-05-17 07:29:33 51°18.436 2°50.984 3 19 14.3 102680 80
2004-05-17 07:29:37 51°18.441 2°50.986 2.9 20 14.3 102680 80
2004-05-17 07:29:43 51°18.449 2°50.988 2.9 19 14.3 102680 80
2004-05-17 07:29:47 51°18.453 2°50.989 2.6 20 14.3 102670 80
2004-05-17 07:29:51 51°18.458 2°50.99 2.7 17 14.3 102670 80
2004-05-17 07:29:57 51°18.465 2°50.99 2.6 20 14.3 102670 80
2004-05-17 07:30:03 51°18.471 2°50.989 2.3 26 14.3 102670 80
2004-05-17 07:30:07 51°18.474 2°50.988 2.2 25 14.3 102670 80
2004-05-17 07:30:13 51°18.478 2°50.987 1.9 28 14.3 102670 80
2004-05-17 07:30:17 51°18.48 2°50.986 1.6 25 14.3 102670 80
2004-05-17 07:30:23 51°18.482 2°50.985 1 28 14.3 102670 80
2004-05-17 07:30:27 51°18.482 2°50.983 0.9 26 14.3 102670 80
2004-05-17 07:30:33 51°18.481 2°50.981 0.5 50 14.3 102670 80
2004-05-17 07:30:37 51°18.481 2°50.979 0.4 50 14.3 102680 80
2004-05-17 07:30:43 51°18.48 2°50.976 0.3 49 14.3 102680 80
2004-05-17 07:30:47 51°18.479 2°50.974 0.5 50 14.4 102680 80
2004-05-17 07:30:53 51°18.478 2°50.971 0.5 50 14.4 102680 80
2004-05-17 07:30:56 51°18.478 2°50.97 0.4 50 14.4 102680 80
2004-05-17 07:31:03 51°18.477 2°50.967 0.5 49 14.4 102680 80
2004-05-17 07:31:07 51°18.476 2°50.965 0.6 49 14.4 102680 80
2004-05-17 07:31:11 51°18.475 2°50.963 0.6 50 14.4 102680 80
2004-05-17 07:31:17 51°18.474 2°50.961 0.6 49 14.4 102680 80
2004-05-17 07:31:23 51°18.473 2°50.958 0.7 50 14.4 102680 80
2004-05-17 07:31:27 51°18.473 2°50.956 0.6 50 14.5 102680 80
2004-05-17 07:31:32 51°18.472 2°50.954 0.5 50 14.5 102680 80
2004-05-17 07:31:37 51°18.471 2°50.952 0.6 50 14.5 102680 80
2004-05-17 07:31:43 51°18.47 2°50.949 0.5 50 14.5 102680 80
2004-05-17 07:31:48 51°18.469 2°50.947 0.5 49 14.5 102670 80
2004-05-17 07:31:53 51°18.468 2°50.945 0.4 49 14.5 102670 80
2004-05-17 07:31:57 51°18.467 2°50.943 0.5 50 14.5 102680 80
2004-05-17 07:32:03 51°18.466 2°50.941 0.4 49 14.5 102680 80
2004-05-17 07:32:08 51°18.465 2°50.939 0.4 49 14.6 102670 80
2004-05-17 07:32:12 51°18.465 2°50.937 0.5 49 14.6 102670 80
2004-05-17 07:32:15 51°18.464 2°50.936 0.6 50 14.6 102680 80
2004-05-17 07:32:23 51°18.463 2°50.932 0.6 50 14.6 102680 80
2004-05-17 07:32:27 51°18.462 2°50.931 0.7 50 14.6 102670 80
2004-05-17 07:32:33 51°18.461 2°50.928 0.6 50 14.6 102670 80
2004-05-17 07:32:37 51°18.46 2°50.926 0.7 50 14.6 102680 80
2004-05-17 07:32:43 51°18.459 2°50.924 0.7 50 14.6 102680 80
2004-05-17 07:32:48 51°18.458 2°50.922 0.8 49 14.6 102680 79
2004-05-17 07:32:53 51°18.457 2°50.92 0.6 49 14.6 102680 79
2004-05-17 07:32:57 51°18.457 2°50.918 0.7 49 14.6 102680 79
2004-05-17 07:33:03 51°18.456 2°50.915 0.6 50 14.6 102680 79
2004-05-17 07:33:08 51°18.455 2°50.913 0.6 50 14.6 102680 79
2004-05-17 07:33:13 51°18.454 2°50.911 0.7 49 14.6 102680 79
2004-05-17 07:33:15 51°18.453 2°50.911 0.7 49 14.6 102680 79
2004-05-17 07:33:23 51°18.452 2°50.907 0.9 50 14.6 102680 79
2004-05-17 07:33:27 51°18.451 2°50.906 0.7 50 14.7 102680 79
2004-05-17 07:33:33 51°18.45 2°50.904 0.6 50 14.7 102680 79
2004-05-17 07:33:38 51°18.449 2°50.902 0.7 50 14.7 102670 79
2004-05-17 07:33:44 51°18.448 2°50.899 0.6 52 14.7 102670 79
2004-05-17 07:33:48 51°18.447 2°50.898 0.7 52 14.7 102680 79
2004-05-17 07:33:54 51°18.446 2°50.895 0.6 53 14.7 102680 79
2004-05-17 07:33:58 51°18.446 2°50.894 0.7 57 14.7 102680 79
2004-05-17 07:34:02 51°18.445 2°50.892 0.7 57 14.7 102680 79
2004-05-17 07:34:08 51°18.444 2°50.89 0.9 62 14.7 102680 79
2004-05-17 07:34:14 51°18.443 2°50.888 0.8 62 14.7 102680 79
2004-05-17 07:34:16 51°18.442 2°50.887 0.7 62 14.7 102680 78
2004-05-17 07:34:24 51°18.441 2°50.884 0.7 60 14.7 102680 78
2004-05-17 07:34:28 51°18.44 2°50.883 0.6 60 14.7 102680 78
2004-05-17 07:34:33 51°18.439 2°50.881 0.8 61 14.7 102680 78
2004-05-17 07:34:36 51°18.438 2°50.88 0.8 61 14.7 102670 78
2004-05-17 07:34:44 51°18.437 2°50.877 1 57 14.7 102670 78
2004-05-17 07:34:48 51°18.436 2°50.875 1.1 59 14.7 102680 78
2004-05-17 07:34:54 51°18.435 2°50.873 1 59 14.7 102680 78
2004-05-17 07:34:58 51°18.434 2°50.872 0.8 59 14.7 102670 78
2004-05-17 07:35:04 51°18.433 2°50.87 1 59 14.7 102670 78
2004-05-17 07:35:09 51°18.432 2°50.868 1 59 14.7 102670 78
2004-05-17 07:35:13 51°18.431 2°50.866 1 58 14.7 102670 78
2004-05-17 07:35:18 51°18.43 2°50.865 1 57 14.7 102670 78
2004-05-17 07:35:24 51°18.429 2°50.863 0.9 57 14.7 102670 78
2004-05-17 07:35:28 51°18.428 2°50.861 0.9 57 14.7 102670 78
2004-05-17 07:35:34 51°18.427 2°50.859 1.1 57 14.7 102670 78
2004-05-17 07:35:38 51°18.426 2°50.858 1.1 57 14.7 102670 78
2004-05-17 07:35:44 51°18.425 2°50.856 1.1 57 14.7 102670 78
2004-05-17 07:35:48 51°18.424 2°50.854 1 57 14.7 102670 78
2004-05-17 07:35:52 51°18.423 2°50.853 1.1 56 14.7 102670 78
2004-05-17 07:35:58 51°18.423 2°50.853 1.4 44 14.7 102670 78
2004-05-17 07:36:03 51°18.422 2°50.853 1.5 42 14.7 102670 78
2004-05-17 07:36:08 51°18.422 2°50.854 1.7 31 14.7 102670 78
2004-05-17 07:36:14 51°18.422 2°50.856 1.8 28 14.7 102670 78
2004-05-17 07:36:17 51°18.423 2°50.858 1.9 22 14.7 102670 78
2004-05-17 07:36:24 51°18.423 2°50.862 2.2 22 14.7 102670 78
2004-05-17 07:36:28 51°18.423 2°50.865 2.3 19 14.6 102670 78
2004-05-17 07:36:32 51°18.424 2°50.868 2.3 19 14.6 102670 78
2004-05-17 07:36:38 51°18.424 2°50.874 2.4 18 14.6 102670 78
2004-05-17 07:36:43 51°18.425 2°50.879 2.8 19 14.6 102670 78
2004-05-17 07:36:48 51°18.425 2°50.885 2.9 15 14.6 102670 78
2004-05-17 07:36:53 51°18.426 2°50.892 3.4 20 14.6 102670 78
2004-05-17 07:36:58 51°18.428 2°50.899 3.5 18 14.6 102670 78
2004-05-17 07:37:04 51°18.432 2°50.907 3.3 21 14.6 102670 78
2004-05-17 07:37:08 51°18.435 2°50.912 3.3 23 14.6 102670 78
2004-05-17 07:37:13 51°18.44 2°50.917 3.2 24 14.6 102670 78
2004-05-17 07:37:18 51°18.446 2°50.92 3.2 25 14.5 102670 78
2004-05-17 07:37:24 51°18.454 2°50.92 3.1 25 14.5 102670 78
2004-05-17 07:37:28 51°18.46 2°50.918 3 29 14.5 102670 78
2004-05-17 07:37:34 51°18.468 2°50.913 2.9 26 14.5 102670 78
2004-05-17 07:37:38 51°18.473 2°50.908 2.7 22 14.5 102670 78
2004-05-17 07:37:44 51°18.48 2°50.897 2.6 20 14.5 102670 78
2004-05-17 07:37:48 51°18.485 2°50.888 2.4 18 14.5 102670 78
2004-05-17 07:37:52 51°18.488 2°50.878 2.2 12 14.5 102670 78
2004-05-17 07:37:58 51°18.492 2°50.861 2.2 5 14.5 102670 78
2004-05-17 07:38:04 51°18.494 2°50.841 2.4 360 14.5 102670 78
2004-05-17 07:38:08 51°18.495 2°50.828 2.4 359 14.5 102670 78
2004-05-17 07:38:13 51°18.495 2°50.81 2.9 355 14.5 102670 78
2004-05-17 07:38:18 51°18.492 2°50.792 2.9 355 14.5 102670 78
2004-05-17 07:38:24 51°18.489 2°50.77 3.3 356 14.5 102670 78
2004-05-17 07:38:28 51°18.485 2°50.755 3.3 354 14.5 102670 78
2004-05-17 07:38:32 51°18.481 2°50.74 3.7 357 14.5 102670 78
2004-05-17 07:38:38 51°18.473 2°50.717 3.7 353 14.5 102670 78
2004-05-17 07:38:44 51°18.465 2°50.695 4 356 14.5 102670 78
2004-05-17 07:38:48 51°18.459 2°50.679 4.1 356 14.5 102670 78
2004-05-17 07:38:53 51°18.451 2°50.661 4.2 357 14.5 102670 78
2004-05-17 07:38:58 51°18.443 2°50.642 4.6 356 14.5 102670 78
2004-05-17 07:39:04 51°18.432 2°50.621 4.4 359 14.5 102670 78
2004-05-17 07:39:08 51°18.424 2°50.608 4.7   14.4 102670 78
2004-05-17 07:39:13 51°18.413 2°50.593 4.8   14.4 102670 78
2004-05-17 07:39:18 51°18.401 2°50.579 4.8 359 14.4 102670 78
2004-05-17 07:39:24 51°18.386 2°50.565 4.8 1 14.4 102670 78
2004-05-17 07:39:29 51°18.373 2°50.554 4.7 359 14.4 102670 78
2004-05-17 07:39:34 51°18.36 2°50.544 4.6 1 14.4 102670 78
2004-05-17 07:39:38 51°18.349 2°50.537 4.9 4 14.4 102670 78
2004-05-17 07:39:44 51°18.333 2°50.528 5.1 3 14.4 102670 78
2004-05-17 07:39:48 51°18.321 2°50.523 4.9 3 14.4 102670 78
2004-05-17 07:39:53 51°18.307 2°50.518 5.2 8 14.4 102670 78
2004-05-17 07:39:58 51°18.293 2°50.513 4.8 5 14.4 102670 78
2004-05-17 07:40:04 51°18.275 2°50.509 5.1 7 14.4 102670 78
2004-05-17 07:40:08 51°18.263 2°50.505 5.3 4 14.4 102670 79
2004-05-17 07:40:14 51°18.245 2°50.501 5.1 4 14.4 102670 79
2004-05-17 07:40:18 51°18.233 2°50.496 5.3 1 14.3 102670 79
2004-05-17 07:40:22 51°18.222 2°50.492 5.3 1 14.3 102670 79
2004-05-17 07:40:28 51°18.204 2°50.484 5.5 358 14.3 102670 79
2004-05-17 07:40:34 51°18.185 2°50.476 6.6 357 14.3 102670 79
2004-05-17 07:40:38 51°18.171 2°50.471 7 356 14.3 102670 79
2004-05-17 07:40:44 51°18.15 2°50.464 7.6 358 14.3 102670 79
2004-05-17 07:40:53 51°18.117 2°50.455 8.2 357 14.3 102670 79
2004-05-17 07:41:00 51°18.09 2°50.45 8.4 357 14.3 102670 80
2004-05-17 07:41:05 51°18.07 2°50.445 8.4 356 14.3 102670 80
2004-05-17 07:41:09 51°18.054 2°50.442 8.4 354 14.3 102660 80
2004-05-17 07:41:14 51°18.035 2°50.436 8.4 354 14.3 102660 80
2004-05-17 07:41:19 51°18.015 2°50.427 8.5 355 14.3 102660 80
2004-05-17 07:41:24 51°17.996 2°50.417 8.4 352 14.3 102660 80
2004-05-17 07:41:29 51°17.977 2°50.405 8.1 352 14.3 102660 80
2004-05-17 07:41:34 51°17.959 2°50.391 8.5 352 14.3 102660 80
2004-05-17 07:41:40 51°17.936 2°50.376 8.2 353 14.3 102660 80
2004-05-17 07:41:44 51°17.921 2°50.366 8.8 352 14.3 102660 80
2004-05-17 07:41:48 51°17.906 2°50.358 8.8 354 14.3 102660 80
2004-05-17 07:41:52 51°17.89 2°50.349 8.6 352 14.3 102660 80
2004-05-17 07:41:58 51°17.867 2°50.336 8.9 353 14.3 102660 80
2004-05-17 07:42:05 51°17.84 2°50.32 8.8 353 14.3 102660 80
2004-05-17 07:42:08 51°17.828 2°50.314 8.8 353 14.3 102660 80
2004-05-17 07:42:13 51°17.808 2°50.304 9.1 352 14.3 102660 80
2004-05-17 07:42:20 51°17.78 2°50.293 9.3 353 14.3 102660 79
2004-05-17 07:42:24 51°17.765 2°50.286 8.9 354 14.3 102660 79
2004-05-17 07:42:29 51°17.745 2°50.279 9.2 354 14.3 102660 79
2004-05-17 07:42:34 51°17.724 2°50.27 9.2 352 14.3 102660 79
2004-05-17 07:42:39 51°17.705 2°50.261 9 354 14.3 102650 79
2004-05-17 07:42:44 51°17.685 2°50.251 9.1 354 14.3 102650 79
2004-05-17 07:42:50 51°17.662 2°50.241 9.2 355 14.3 102660 79
2004-05-17 07:42:54 51°17.646 2°50.235 8.9 355 14.3 102660 79
2004-05-17 07:43:00 51°17.622 2°50.225 8.9 354 14.4 102660 79
2004-05-17 07:43:04 51°17.606 2°50.218 8.7 355 14.4 102660 79
2004-05-17 07:43:08 51°17.59 2°50.212 8.9 358 14.4 102650 79
2004-05-17 07:43:14 51°17.566 2°50.202 9 354 14.4 102650 79
2004-05-17 07:43:20 51°17.542 2°50.192 8.6 355 14.4 102660 78
2004-05-17 07:43:24 51°17.526 2°50.185 8.5 356 14.4 102660 78
2004-05-17 07:43:28 51°17.511 2°50.179 8.2 358 14.4 102650 78
2004-05-17 07:43:33 51°17.491 2°50.171 8.6 355 14.4 102650 78
2004-05-17 07:43:40 51°17.463 2°50.16 8.7 357 14.4 102660 78
2004-05-17 07:43:44 51°17.447 2°50.154 8.7 356 14.4 102660 78
2004-05-17 07:43:49 51°17.427 2°50.146 8.5 355 14.5 102660 78
2004-05-17 07:43:54 51°17.408 2°50.139 8.2 357 14.5 102660 78
2004-05-17 07:44:00 51°17.384 2°50.129 8.4 357 14.5 102660 78
2004-05-17 07:44:05 51°17.364 2°50.121 8.3 356 14.5 102660 78
2004-05-17 07:44:09 51°17.348 2°50.114 8.4 358 14.5 102650 78
2004-05-17 07:44:14 51°17.329 2°50.105 8 358 14.5 102650 78
2004-05-17 07:44:20 51°17.306 2°50.093 7.8 358 14.5 102660 78
2004-05-17 07:44:24 51°17.291 2°50.084 7.8 356 14.5 102660 78
2004-05-17 07:44:28 51°17.275 2°50.076 7.7 357 14.5 102660 78
2004-05-17 07:44:32 51°17.26 2°50.067 7.8 359 14.5 102660 78
2004-05-17 07:44:38 51°17.237 2°50.056 7.6 359 14.5 102660 78
2004-05-17 07:44:44 51°17.213 2°50.045 7.6 359 14.5 102660 78
2004-05-17 07:44:48 51°17.198 2°50.037 7.3 360 14.5 102660 78
2004-05-17 07:44:54 51°17.175 2°50.025 7.2 358 14.5 102660 78
2004-05-17 07:45:00 51°17.152 2°50.011 7.4 359 14.5 102660 78
2004-05-17 07:45:05 51°17.134 2°49.999 7.5 358 14.5 102660 78
2004-05-17 07:45:10 51°17.115 2°49.986 7.6 1 14.5 102660 78
2004-05-17 07:45:14 51°17.1 2°49.976 7.1 360 14.5 102660 78
2004-05-17 07:45:20 51°17.078 2°49.961 7.2 359 14.5 102660 78
2004-05-17 07:45:25 51°17.059 2°49.949 7.4 1 14.5 102660 78
2004-05-17 07:45:30 51°17.041 2°49.936 7.4 360 14.4 102660 78
2004-05-17 07:45:35 51°17.022 2°49.923 7.2 1 14.4 102660 78
2004-05-17 07:45:40 51°17.003 2°49.91 7.3 360 14.4 102660 78
2004-05-17 07:45:45 51°16.985 2°49.895 6.9 1 14.4 102660 78
2004-05-17 07:45:49 51°16.971 2°49.882 6.8 1 14.4 102660 79
2004-05-17 07:45:54 51°16.954 2°49.865 7.1 3 14.4 102660 79
2004-05-17 07:45:58 51°16.941 2°49.85 7 2 14.4 102660 79
2004-05-17 07:46:04 51°16.921 2°49.827 7.2 3 14.4 102660 79
2004-05-17 07:46:09 51°16.904 2°49.809 7.1 3 14.4 102660 79
2004-05-17 07:46:14 51°16.887 2°49.791 7.4 1 14.4 102660 79
2004-05-17 07:46:19 51°16.87 2°49.772 7.4 2 14.4 102660 79
2004-05-17 07:46:24 51°16.852 2°49.754 7.4 1 14.4 102660 79
2004-05-17 07:46:30 51°16.831 2°49.733 7.5   14.4 102660 79
2004-05-17 07:46:34 51°16.817 2°49.719 7.3   14.4 102660 79
2004-05-17 07:46:39 51°16.8 2°49.701 7.4   14.4 102660 79
2004-05-17 07:46:44 51°16.782 2°49.682 7.2 359 14.4 102660 79
2004-05-17 07:46:48 51°16.769 2°49.666 7.3 360 14.3 102660 79
2004-05-17 07:46:54 51°16.749 2°49.642 7.3 359 14.3 102660 79
2004-05-17 07:47:00 51°16.729 2°49.617 7.3 3 14.3 102660 79
2004-05-17 07:47:04 51°16.716 2°49.6 7.5   14.3 102660 79
2004-05-17 07:47:09 51°16.7 2°49.579 7.4 1 14.3 102660 80
2004-05-17 07:47:14 51°16.684 2°49.56 7.2 4 14.3 102660 80
2004-05-17 07:47:20 51°16.663 2°49.538 7.5 4 14.3 102660 80
2004-05-17 07:47:24 51°16.649 2°49.524 7.1 5 14.3 102660 80
2004-05-17 07:47:28 51°16.635 2°49.509 7.4 5 14.3 102660 80
2004-05-17 07:47:34 51°16.614 2°49.487 7.2 5 14.3 102660 80
2004-05-17 07:47:39 51°16.597 2°49.468 7 4 14.3 102660 80
2004-05-17 07:47:45 51°16.576 2°49.445 7.2 4 14.3 102660 80
2004-05-17 07:47:49 51°16.562 2°49.43 7.3 5 14.2 102660 80
2004-05-17 07:47:54 51°16.545 2°49.412 7.2 4 14.2 102660 80
2004-05-17 07:48:00 51°16.524 2°49.391 7.4 4 14.2 102660 80
2004-05-17 07:48:05 51°16.506 2°49.373 7.2 5 14.2 102660 80
2004-05-17 07:48:09 51°16.492 2°49.359 7.3 6 14.2 102660 80
2004-05-17 07:48:14 51°16.475 2°49.341 7.3 5 14.2 102660 80
2004-05-17 07:48:20 51°16.454 2°49.318 7.4 6 14.2 102650 81